{"data":{"norad_id":65902,"epoch":"2026-09-20T07:14:59.770752Z","epoch_age_seconds":123175,"freshness":"FRESH","line1":"1 65902U 25224W   26263.30208068  .00014555  00000+0  44106-3 0  9990","line2":"2 65902  53.1574 186.4446 0001480  81.1706 278.9464 15.34401616 54682","mean_motion":15.34401616,"eccentricity":0.000148,"inclination_deg":53.1574,"raan_deg":186.4446,"arg_perigee_deg":81.1706,"mean_anomaly_deg":278.9464,"bstar":0.00044106,"rev_number":5468,"period_min":93.84765924282,"perigee_km":461.68599347407,"apogee_km":463.71088076346,"semimajor_km":6840.8354371188,"source":"CELESTRAK","updated_at":"2026-09-21T09:00:35.760355Z"}}